360P/WISE (2017)

Japanese version
Home page
Updated on November 7, 2017

---------------------------------------------------------------------

* Profile

Designation 360P/2017 S1
Recovery Date September 20, 2017
Magnitude 19.4 mag
Recoverer E. Schwab and D. Abreu (European Space Agency's Optical Ground Station at Tenerife)

* Pictures

* Orbital Elements

Epoch 2017 Sept. 4.0 TT = JDT 2458000.5
T 2017 Aug. 18.42953 TT                                 MPCW
q   1.8607475            (2000.0)            P               Q
n   0.13816263     Peri.  354.15605     +0.99767039     +0.06633899
a   3.7057460      Node     2.23395     -0.03312215     +0.67485483
e   0.4978751      Incl.   24.07886     -0.05963814     +0.73496265
P   7.13
From 62 observations 2010 Aug. 6-2017 Sept. 20, mean residual 0".5.

* Magnitudes Graph

        16.0 + 5 log d + 10.0 log r

---------------------------------------------------------------------

The orbital elements are published on M.P.E.C. 2017-S90.
The magnitudes graphs are made with Comet for Windows.

---------------------------------------------------------------------

Copyright(C) Seiichi Yoshida (comet@aerith.net). All rights reserved.